SL-16 DEB, 22445

Orbit data source: Space-Track

SL-16 DEB, 22445 is space debris in LEO originally from a launch on Fri, 25 Dec 1992 UTC launched from the Tyuratam Missile And Space Complex (TTMTR). Debris objects in space refer to the collection of defunct objects orbiting the Earth. Examples of debris include non-operational satellites, rocket bodies, and fragments generated from explosions, collisions, or faulty payload assembly.

Loading next visibility...
Identifier
22445, 1992-093EN
Orbit
LEO
Country
Flag of CISCIS
Related business
Manufacturer
Unknown
Mission
Spacecraft
Bus & Motor
Unknown
Mass
Unknown
Launch date (UTC)
1992-12-25 (33 years ago)
Launch vehicle
Unknown
Launch site
Tyuratam Missile And Space Complex (TTMTR)
Object type
Payload
Rocket body
Debris
Shape & HBR
Unknown shape, 0.1 m
Radar Cross Section
Small (<0.1 m²)

Expand to show TLE details & history
Last TLE update: 2 days ago

TLE from 2 days ago
0 SL-16 DEB
1 22445U 92093EN  25304.87554983  .00001284  00000-0  66568-3 0  9992
2 22445  71.2852 115.8125 0075120 184.4165 175.6306 14.15180509686092
Epoch: 2025-10-31T21:00Z
TLE epoch observation values (Epoch: 2025-10-31T21:00:47.505Z)
Latitude
-0.00008°
Longitude
120.20083°
Altitude
898.205 km
Speed
7.375 km/s
True Right ascension
07h 43m 14s
True Declination
0° 00' 00"
Sunlit
Object was in daylight at epoch
Visualization orbit readout
Latitude
Unknown
Longitude
Unknown
Altitude
Unknown
Speed
Unknown
Apparent Right ascension
Unknown
Apparent Declination
Unknown
Sunlit
N/A
Visualization observer readout
Local Sidereal Time
12:19:52
Azimuth
Unknown
Elevation
Unknown
Doppler factor
Unknown
Orbital elements
Apogee altitude
893.814 km
Perigee altitude
785.375 km
Semi-major axis
7,217.732 km
Eccentricity
0.00751
Inclination
71.2852°
RAAN
115.8125°
Arg. of periapsis
184.4165°
True anomaly
175.69557°
Mean anomaly
175.6306°
Eccentric anomaly
175.66315°
Mean motion
3.5395 °/min
Orbital period
101.71 mins
BSTAR
0.00066568
Loading maneuver chart data...
Computing Atmospheric mass density...
Loading historical data...
Loading historical data...
Loading historical data...
Loading historical data...
Loading historical data...
Loading historical data...
Loading historical data...

Documentation

Showing up to 5 results
|